Flag for India Weather past 2 weeks in Mumbai, Maharashtra, India

Now
73 °F

Clear.


Feels Like: 77 °F
Forecast: 74 / 86 °F
Wind: 12 mph from East

Location: Bombay / Santacruz

Current Time: Dec 27, 2014 at 6:31:28 AM

Latest Report: Dec 27, 2014 at 5:40 AM


Visibility: 2 mi

Pressure: 29.89 "Hg

Humidity: 36%

Dew point: 45 °F

Location of MumbaiLocation

Historic Weather in Mumbai — Graph

°F

Mumbai temperature yesterday

Maximum temperature yesterday: 90 °F (at 2:40 PM)
Minimum temperature yesterday: 73 °F (at 1:40 AM)
Average temperature yesterday: 79 °F

Past Weeks' High & Low Weather Summary

 TemperatureHumidityPressure
High90 °F (Dec 16, 2:40 PM)94% (Dec 12, 8:10 AM)30.04 "Hg (Dec 12, 8:10 AM)
Low66 °F (Dec 15, 4:10 AM)18% (Dec 15, 2:40 PM)29.80 "Hg (Dec 22, 3:10 PM)
Average78 °F49%29.93 "Hg
* Reported Dec 12 4:40 AM — Dec 27 4:40 AM, Mumbai, Weather by CustomWeather, © 2014

Note: Actual official high and low records may vary slightly from our data, if they occured in-between our weather recording intervals... More about our weather records

Advertising

Mumbai weather history for previous 24 hours

 ConditionsComfort  
Time TempWeatherWind HumidityBarometerVisibility
4:40 AM
Dec 27
73 °FClear.13 mph38%29.86 "Hg2 mi
3:40 AM73 °FClear.14 mph41%29.86 "Hg2 mi
2:40 AM75 °FClear.8 mph39%29.86 "Hg1 mi
1:40 AM75 °FClear.13 mph41%29.89 "Hg1 mi
12:40 AM77 °FClear.13 mph39%29.89 "Hg1 mi
11:40 PM
Dec 26
77 °FClear.9 mph39%29.89 "Hg1 mi
10:40 PM79 °FClear.5 mph42%29.92 "Hg1 mi
9:40 PM77 °FClear.No wind51%29.92 "Hg1 mi
8:40 PM79 °FPassing clouds.6 mph54%29.89 "Hg1 mi
7:40 PM79 °FPassing clouds.6 mph58%29.89 "Hg1 mi
6:40 PM81 °FPassing clouds.8 mph54%29.86 "Hg1 mi
5:40 PM82 °FClear.9 mph48%29.86 "Hg1 mi
5:10 PM84 °FClear.9 mph45%29.83 "Hg1 mi
4:40 PM84 °FPassing clouds.9 mph45%29.83 "Hg1 mi
3:40 PM86 °FClear.8 mph46%29.86 "Hg2 mi
2:40 PM90 °FClear.7 mph26%29.86 "Hg2 mi
1:40 PM88 °FClear.10 mph29%29.89 "Hg2 mi
12:40 PM86 °FClear.10 mph31%29.92 "Hg1 mi
11:40 AM84 °FClear.10 mph33%29.95 "Hg1 mi
10:40 AM81 °FClear.9 mph37%29.98 "Hg1 mi
9:40 AM79 °FClear.9 mph39%29.98 "Hg1 mi
8:40 AM75 °FPassing clouds.9 mph44%29.98 "Hg1 mi
8:10 AM75 °FHaze.5 mph47%29.98 "Hg1 mi
7:40 AM75 °FHaze.No wind47%29.95 "Hg1 mi
7:10 AM75 °FHaze.6 mph50%29.95 "Hg1 mi
6:40 AM75 °FHaze.8 mph50%29.92 "Hg1 mi
Weather by CustomWeather, © 2014

See weather overviewHow to use our weather pages